TimeMDT,TemperatureF,Dew PointF,Humidity,Sea Level PressureIn,VisibilityMPH,Wind Direction,Wind SpeedMPH,Gust SpeedMPH,PrecipitationIn,Events,Conditions,WindDirDegrees,DateUTC
12:15 AM,50.0,23.0,35,30.11,10.0,NW,6.9,-,N/A,,Clear,310,2013-04-28 06:15:00
12:35 AM,50.0,23.0,35,30.11,10.0,WNW,9.2,-,N/A,,Clear,300,2013-04-28 06:35:00
12:55 AM,50.0,23.0,35,30.11,10.0,NW,9.2,-,N/A,,Clear,310,2013-04-28 06:55:00
1:15 AM,50.0,23.0,35,30.11,10.0,NW,8.1,-,N/A,,Clear,310,2013-04-28 07:15:00
1:35 AM,48.2,23.0,37,30.11,10.0,WNW,6.9,-,N/A,,Clear,300,2013-04-28 07:35:00
1:55 AM,46.4,23.0,40,30.11,10.0,NW,6.9,-,N/A,,Clear,320,2013-04-28 07:55:00
2:15 AM,46.4,23.0,40,30.10,10.0,NW,8.1,-,N/A,,Clear,310,2013-04-28 08:15:00
2:35 AM,46.4,23.0,40,30.10,10.0,NW,8.1,-,N/A,,Clear,320,2013-04-28 08:35:00
2:55 AM,44.6,24.8,46,30.09,10.0,NW,9.2,-,N/A,,Clear,320,2013-04-28 08:55:00
3:15 AM,44.6,24.8,46,30.09,10.0,NW,9.2,-,N/A,,Clear,320,2013-04-28 09:15:00
3:35 AM,42.8,26.6,53,30.09,10.0,NW,12.7,-,N/A,,Clear,320,2013-04-28 09:35:00
3:55 AM,42.8,26.6,53,30.08,10.0,NW,8.1,-,N/A,,Clear,320,2013-04-28 09:55:00
4:15 AM,42.8,26.6,53,30.08,10.0,NW,8.1,-,N/A,,Clear,320,2013-04-28 10:15:00
4:35 AM,41.0,26.6,57,30.08,10.0,NW,10.4,-,N/A,,Clear,310,2013-04-28 10:35:00
4:55 AM,41.0,26.6,57,30.08,10.0,NW,8.1,-,N/A,,Clear,320,2013-04-28 10:55:00
5:15 AM,41.0,26.6,57,30.08,10.0,NW,11.5,-,N/A,,Clear,320,2013-04-28 11:15:00
5:35 AM,39.2,26.6,61,30.08,10.0,NW,10.4,-,N/A,,Clear,320,2013-04-28 11:35:00
5:55 AM,39.2,26.6,61,30.08,10.0,NW,12.7,-,N/A,,Clear,320,2013-04-28 11:55:00
6:15 AM,37.4,26.6,65,30.08,10.0,NW,8.1,-,N/A,,Clear,310,2013-04-28 12:15:00
6:35 AM,37.4,26.6,65,30.07,10.0,NW,10.4,-,N/A,,Clear,320,2013-04-28 12:35:00
6:55 AM,37.4,26.6,65,30.07,10.0,NNW,10.4,-,N/A,,Clear,330,2013-04-28 12:55:00
7:47 AM,41.0,26.6,57,30.09,10.0,NW,12.7,-,N/A,,Mostly Cloudy,310,2013-04-28 13:47:00
8:47 AM,46.4,26.6,46,30.09,10.0,NW,11.5,-,N/A,,Mostly Cloudy,310,2013-04-28 14:47:00
9:47 AM,53.6,26.6,35,30.08,10.0,NNW,6.9,-,N/A,,Scattered Clouds,330,2013-04-28 15:47:00
10:47 AM,59.0,26.6,29,30.07,10.0,North,4.6,-,N/A,,Scattered Clouds,360,2013-04-28 16:47:00
11:50 AM,60.8,30.2,31,30.05,10.0,South,3.5,-,N/A,,Mostly Cloudy,180,2013-04-28 17:50:00
12:47 PM,62.6,28.4,27,30.04,10.0,NNW,8.1,-,N/A,,Scattered Clouds,330,2013-04-28 18:47:00
1:50 PM,64.4,28.4,26,30.03,10.0,WSW,13.8,27.6,N/A,,Scattered Clouds,240,2013-04-28 19:50:00
2:47 PM,64.4,26.6,24,30.01,10.0,West,11.5,17.3,N/A,,Partly Cloudy,280,2013-04-28 20:47:00
3:47 PM,64.4,21.2,19,30.00,10.0,NW,17.3,25.3,N/A,,Partly Cloudy,310,2013-04-28 21:47:00
4:50 PM,64.4,19.4,18,29.98,10.0,West,13.8,25.3,N/A,,Partly Cloudy,270,2013-04-28 22:50:00
5:50 PM,62.6,15.8,16,29.97,10.0,NW,11.5,23.0,N/A,,Partly Cloudy,310,2013-04-28 23:50:00
6:47 PM,60.8,15.8,17,29.97,10.0,WSW,16.1,28.8,N/A,,Partly Cloudy,250,2013-04-29 00:47:00
7:47 PM,57.2,19.4,23,29.97,10.0,NW,20.7,-,N/A,,Clear,310,2013-04-29 01:47:00
8:47 PM,55.4,19.4,25,29.99,10.0,NW,8.1,-,N/A,,Partly Cloudy,310,2013-04-29 02:47:00
9:47 PM,51.8,19.4,28,30.02,10.0,NW,5.8,-,N/A,,Clear,310,2013-04-29 03:47:00
10:47 PM,48.2,19.4,32,30.01,10.0,NW,6.9,-,N/A,,Clear,310,2013-04-29 04:47:00
11:15 PM,46.4,21.2,37,30.01,10.0,NW,5.8,-,N/A,,Clear,320,2013-04-29 05:15:00
11:35 PM,46.4,21.2,37,30.01,10.0,NNW,8.1,-,N/A,,Clear,330,2013-04-29 05:35:00
11:55 PM,44.6,21.2,39,30.00,10.0,NNW,9.2,-,N/A,,Clear,340,2013-04-29 05:55:00